Location: Champignolles
(47.0543°N, 4.5663°E)
Time: 14:57:43
(UTC+00:00)

CENTAUR R/B - Visible Passes

Search period start: 20 April 2021 00:00
Search period end: 30 April 2021 00:00
Orbit: 742 x 1446 km, 63.4° (Epoch: 18 April)

Date Brightness Start Highest point End Pass type
(mag) Time Alt. Az. Time Alt. Az. Time Alt. Az.
20 Apr 4.7 18:57:36 10° NW 19:05:01 37° WSW 19:12:54 10° S visible
21 Apr 5.6 20:02:53 10° WNW 20:06:18 13° WSW 20:09:46 10° SW visible
22 Apr 5.4 19:12:34 10° WNW 19:18:34 22° WSW 19:24:49 10° SSW visible
24 Apr 5.9 19:29:42 10° W 19:31:51 11° W 19:34:01 10° WSW visible
